Regional Weather Roundup
Issued by NWS

Home | Current Version | Previous Version | Text Only | Print | Product List | Glossary Off
Versions: 1 2 3 4 5 6 7 8 9 10 11 12 13 14 15 16 17 18 19 20 21 22 23 24 25 26 27 28 29 30 31 32 33 34 35 36 37 38 39 40 41 42 43 44 45 46 47 48 49 50

000
ASUS43 KOAX 211902
RWRNE

WEATHER ROUNDUP FOR NEBRASKA
NATIONAL WEATHER SERVICE OMAHA NE
200 PM CDT MON MAY 21 2018

NOTES: SATELLITE DATA IS BEING USED TO AUGMENT CLOUD COVER ABOVE
       12000 FEET.
       "FAIR" INDICATES FEW OR NO CLOUDS BELOW 12,000 FEET WITH NO
       SIGNIFICANT WEATHER AND/OR OBSTRUCTIONS TO VISIBILITY.


NEZ001>004-019>022-054>056-212000-
NEBRASKA PANHANDLE

CITY           SKY/WX    TMP DP  RH WIND       PRES   REMARKS
SCOTTSBLUFF    SUNNY     68  56  65 E7        29.98F
ALLIANCE       MOSUNNY   65  54  67 SE9G17    29.99F
CHADRON        SUNNY     73  55  53 S8        29.94F
GORDON         FAIR      71  55  56 S10       29.97F
KIMBALL        SUNNY     66  52  60 CALM      30.02F
SIDNEY         MOSUNNY   67  53  61 SE9       30.02S
$$

NEZ057>060-069>072-079>082-212000-
SOUTHWEST NEBRASKA

CITY           SKY/WX    TMP DP  RH WIND       PRES   REMARKS
NORTH PLATTE   MOSUNNY   73  59  61 S14G24    30.00F
IMPERIAL       PTSUNNY   72  55  55 S13G23    30.00F
LEXINGTON      CLOUDY    68  58  70 S12       30.03F
MCCOOK         SUNNY     75  58  55 S17G28    29.99F
OGALLALA       CLOUDY    68  56  65 S15       30.00F
$$

NEZ005>010-023>029-035>040-094-212000-
NORTH CENTRAL NEBRASKA

CITY           SKY/WX    TMP DP  RH WIND       PRES   REMARKS
VALENTINE      SUNNY     73  48  41 S9        29.98F
AINSWORTH      SUNNY     70  50  49 S9        29.99F
BROKEN BOW     MOSUNNY   69  54  58 S13G24    30.01F
O`NEILL        SUNNY     71  50  47 SW9       30.01F
ORD            SUNNY     69  54  58 VRB5G17   30.01F
THEDFORD       PTSUNNY   70  52  52 S12G20    30.01S
$$

NEZ041-046>049-061>064-073>077-083>087-212000-
SOUTH CENTRAL NEBRASKA

CITY           SKY/WX    TMP DP  RH WIND       PRES   REMARKS
GRAND ISLAND   MOSUNNY   70  55  59 S9G18     30.05F
AURORA         MOSUNNY   68  54  60 SW9       30.05F
HASTINGS       SUNNY     69  55  60 S8        30.06F
HEBRON         SUNNY     73  54  50 CALM      30.05F
HOLDREGE       SUNNY     68  56  64 S10G22    30.04F
KEARNEY        SUNNY     68  55  63 S14       30.04F
YORK           PTSUNNY   68  57  68 W6        30.06S
$$

NEZ011>018-030>034-042>045-212000-
NORTHEAST NEBRASKA

CITY           SKY/WX    TMP DP  RH WIND       PRES   REMARKS
NORFOLK        MOSUNNY   69  52  54 VRB7      30.01F
ALBION         SUNNY     70  53  55 W8        30.03S
BLAIR          CLOUDY    64  57  77 SW6       30.04F
COLUMBUS       SUNNY     70  55  59 SW7       30.03F
FREMONT        MOSUNNY   69  58  67 W3        30.04F
TEKAMAH        CLOUDY    64  57  78 W6        30.03F
WAYNE          CLOUDY    67  58  74 CALM      30.02F
$$

NEZ050>053-065>068-078-088>093-212000-
SOUTHEAST NEBRASKA

CITY           SKY/WX    TMP DP  RH WIND       PRES   REMARKS
LINCOLN        SUNNY     71  55  56 VRB3      30.04F
OMAHA EPPLEY   PTSUNNY   67  56  67 W5        30.03F
BEATRICE       SUNNY     73  56  56 W6        30.05S
FALLS CITY     SUNNY     73  56  54 SW8       30.03F
NEBRASKA CITY  MOSUNNY   69  59  71 NW5G16    30.04F
PLATTSMOUTH    PTSUNNY   66  57  71 NW9       30.04F
$$

NEZ044-045-051>053-067-212000-
OMAHA AREA

CITY           SKY/WX    TMP DP  RH WIND       PRES   REMARKS
OMAHA EPPLEY   PTSUNNY   67  56  67 W5        30.03F
BLAIR          CLOUDY    64  57  77 SW6       30.04F
FREMONT        MOSUNNY   69  58  67 W3        30.04F
MILLARD        PTSUNNY   67  58  73 NW7       30.04F
OFFUTT AFB     MOSUNNY   67  58  72 W8        30.03F
PLATTSMOUTH    PTSUNNY   66  57  71 NW9       30.04F
WAHOO          FAIR      71  55  56 W3        30.02F
$$



USA.gov is the U.S. government's official web portal to all federal, state and local government web resources and services.